Regional Weather Roundup
Issued by NWS

Home | Current Version | Previous Version | Text Only | Print | Product List | Glossary Off
Versions: 1 2 3 4 5 6 7 8 9 10 11 12 13 14 15 16 17 18 19 20 21 22 23 24 25 26 27 28 29 30 31 32 33 34 35 36 37 38 39 40 41 42 43 44 45 46 47 48 49 50

729
ASUS45 KABQ 132301
RWRNM
NEW MEXICO REGIONAL WEATHER ROUNDUP
NATIONAL WEATHER SERVICE ALBUQUERQUE NM
400 PM MST WED DEC 13 2017

NOTE: "FAIR" MEANS FEW OR NO CLOUDS BELOW 12,000 FEET AGL WITH NO
       SIGNIFICANT WEATHER OR OBSTRUCTIONS TO VISION.

      THIS PRODUCT IS RELEASED AS TWO VERSIONS.  ONE VERSION NEAR
      THE TOP OF THE HOUR CONTAINING PRELIMINARY DATA FROM ALBUQUERQUE
      AND OTHER STATIONS.  A FINAL VERSION WITH ADDITIONAL DATA IS
      ISSUED ABOUT 10 MINUTES AFTER THE HOUR.

NMZ501-503-504-510>518-140000-
NORTHWEST PLATEAU/NORTHCENTRAL MOUNTAINS

CITY           SKY/WX    TMP DP  RH WIND       PRES   REMARKS
FARMINGTON     FAIR      46   7  20 W7        30.05F
LOS ALAMOS     FAIR      52   3  13 S7        30.07F
SANTA FE       FAIR      51   6  16 S6        30.05F
TAOS           FAIR      54   9  16 SW14      30.05F
ANGEL FIRE     FAIR      48   1  14 S3        30.08S

$$
NMZ402-403-502-505>509-140000-
WESTCENTRAL MOUNTAINS/SOUTHWEST MOUNTAINS

CITY           SKY/WX    TMP DP  RH WIND       PRES   REMARKS
GALLUP         FAIR      57   4  12 W6        30.07F
GRANTS         FAIR      56   5  13 N12       30.08F
SILVER CITY    FAIR      61  18  19 S7        30.06S

$$
NMZ407-409-411-412-140000-
SOUTHERN DESERTS

CITY           SKY/WX    TMP DP  RH WIND       PRES   REMARKS
DEMING         FAIR      62  19  19 SW5       30.03F
LAS CRUCES     FAIR      63  18  17 SW6       30.04F
HOLLOMAN AFB   FAIR      59   8  13 W7        30.03F
ALAMOGORDO     FAIR      59   5  11 W6        30.02F
T OR C         FAIR      58   6  12 S6        30.03F

$$
NMZ519>523-140000-
CENTRAL VALLEYS/CENTRAL HIGHLANDS

CITY           SKY/WX    TMP DP  RH WIND       PRES   REMARKS
ALBUQUERQUE    FAIR      54   4  13 CALM      30.05F
DOUBLE EAGLE   CLEAR     54   9  16 VRB7      30.06S
MORIARTY ARPT  FAIR      59   9  13 SE12      30.06F
CLINES CORNERS FAIR      51   9  18 SE12      30.08F
BELEN          FAIR      54   5  13 CALM      30.05S
SOCORRO        FAIR      56   5  13 CALM      30.04F

$$
NMZ524>526-539-540-140000-
SOUTHCENTRAL MOUNTAINS

CITY           SKY/WX    TMP DP  RH WIND       PRES   REMARKS
RUIDOSO        FAIR      54   1  12 NW8       30.08F

$$
NMZ527>531-140000-
NORTHEAST HIGHLANDS/NORTHEAST PLAINS

CITY           SKY/WX    TMP DP  RH WIND       PRES   REMARKS
LAS VEGAS      FAIR      50   8  18 S16       30.06F
RATON          FAIR      51   5  15 E7        30.01F
CLAYTON        FAIR      50  10  20 NE9       30.02S

$$
NMZ532>537-140000-
EASTCENTRAL PLAINS

CITY           SKY/WX    TMP DP  RH WIND       PRES   REMARKS
SANTA ROSA     FAIR      58   9  14 E8        30.02S
TUCUMCARI      FAIR      60  10  14 E12       29.98F
CANNON AFB     FAIR      58  12  16 NE13      30.00F
CLOVIS AIRPORT FAIR      57  14  18 NE12      30.00F

$$
NMZ028-029-538-140000-
SOUTHEAST PLAINS

CITY           SKY/WX    TMP DP  RH WIND       PRES   REMARKS
ROSWELL        FAIR      64  12  13 N9        29.96F
ARTESIA        FAIR      63  12  14 N13       29.96F
CARLSBAD       FAIR      65  17  15 S3        29.93F
HOBBS          CLEAR     66  10  11 W8        29.94F


$$




USA.gov is the U.S. government's official web portal to all federal, state and local government web resources and services.